SAA280 FCBB-FAOR

Flight info

Callsign SAA280
Flight time N/A
Altitude 39000
Route KSA4B KSA UB733 BUGRO UM998 GBV UL435 ETOSA UZ10 PEDIL UQ19 AVAGO AVAGO1D
Aircraft A343/H-SDE2E3FGHIJ4J5M1RWXY/LB1D1

Departure

Time N/A
Airport Maya-Maya International Airport (FCBB)

Arrival

Time 2026-05-06 04:48
Airport O.R. Tambo International Airport (FAOR)
Time Latitude Longitude Altitude Speed Heading
2026-05-06 02:05 -7.93913 17.54465 40940 ft 479 kts 150°
2026-05-06 02:06 -7.99631 17.57935 40939 ft 481 kts 149°
2026-05-06 02:06 -8.05377 17.61426 40929 ft 484 kts 149°
2026-05-06 02:07 -8.11164 17.64943 40934 ft 487 kts 149°
2026-05-06 02:07 -8.16967 17.68468 40932 ft 486 kts 149°
2026-05-06 02:08 -8.22759 17.71988 40946 ft 485 kts 149°
2026-05-06 02:08 -8.28510 17.75486 40940 ft 485 kts 150°
2026-05-06 02:09 -8.34283 17.78998 40939 ft 484 kts 150°
2026-05-06 02:09 -8.40072 17.82521 40933 ft 485 kts 150°
2026-05-06 02:10 -8.45861 17.86045 40948 ft 486 kts 150°
2026-05-06 02:10 -8.51645 17.89568 40931 ft 486 kts 150°
2026-05-06 02:11 -8.57439 17.93098 40945 ft 485 kts 150°
2026-05-06 02:11 -8.63187 17.96601 40934 ft 485 kts 150°
2026-05-06 02:12 -8.68973 18.00129 40943 ft 487 kts 150°
2026-05-06 02:12 -8.74787 18.03675 40951 ft 489 kts 150°
2026-05-06 02:13 -8.80612 18.07229 40940 ft 489 kts 150°
2026-05-06 02:13 -8.86439 18.10785 40951 ft 489 kts 150°
2026-05-06 02:14 -8.92263 18.14341 40957 ft 489 kts 150°
2026-05-06 02:14 -8.98086 18.17898 40960 ft 489 kts 150°
2026-05-06 02:15 -9.03868 18.21432 40948 ft 489 kts 150°
2026-05-06 02:15 -9.09691 18.24992 40945 ft 489 kts 150°
2026-05-06 02:16 -9.15516 18.28554 40957 ft 488 kts 150°
2026-05-06 02:16 -9.21336 18.32115 40946 ft 488 kts 150°
2026-05-06 02:17 -9.27123 18.35656 40961 ft 488 kts 150°
2026-05-06 02:17 -9.32938 18.39217 40946 ft 488 kts 150°
2026-05-06 02:18 -9.38751 18.42777 40953 ft 487 kts 151°
2026-05-06 02:18 -9.44543 18.46326 40948 ft 486 kts 151°
2026-05-06 02:19 -9.50339 18.49878 40950 ft 486 kts 151°
2026-05-06 02:19 -9.56131 18.53431 40947 ft 486 kts 151°
2026-05-06 02:20 -9.64781 18.58738 40950 ft 486 kts 151°
2026-05-06 02:21 -9.70568 18.62290 40950 ft 486 kts 151°
2026-05-06 02:21 -9.76356 18.65843 40955 ft 485 kts 151°
2026-05-06 02:22 -9.82115 18.69380 40962 ft 483 kts 151°
2026-05-06 02:22 -9.86898 18.72319 40966 ft 483 kts 151°
2026-05-06 02:23 -9.93578 18.76425 40957 ft 483 kts 151°
2026-05-06 02:23 -9.99327 18.79960 40972 ft 483 kts 151°
2026-05-06 02:24 -10.04114 18.82905 40959 ft 484 kts 151°
2026-05-06 02:24 -10.09866 18.86445 40959 ft 484 kts 151°
2026-05-06 02:25 -10.15632 18.89995 40961 ft 484 kts 151°
2026-05-06 02:25 -10.21393 18.93544 40963 ft 484 kts 151°
2026-05-06 02:26 -10.27151 18.97093 40962 ft 484 kts 151°
2026-05-06 02:26 -10.32869 19.00617 40969 ft 484 kts 151°
2026-05-06 02:27 -10.38627 19.04169 40967 ft 484 kts 152°
2026-05-06 02:27 -10.44385 19.07722 40965 ft 483 kts 152°
2026-05-06 02:28 -10.50136 19.11272 40969 ft 483 kts 152°
2026-05-06 02:28 -10.55857 19.14805 40969 ft 484 kts 151°
2026-05-06 02:29 -10.61615 19.18363 40967 ft 484 kts 151°
2026-05-06 02:29 -10.67366 19.21917 40968 ft 484 kts 151°
2026-05-06 02:30 -10.73121 19.25477 40973 ft 484 kts 152°
2026-05-06 02:30 -10.78886 19.29043 40975 ft 486 kts 152°
2026-05-06 02:31 -10.84663 19.32619 40972 ft 486 kts 152°
2026-05-06 02:31 -10.90438 19.36195 40972 ft 486 kts 152°
2026-05-06 02:32 -10.96211 19.39772 40982 ft 486 kts 152°
2026-05-06 02:32 -11.01952 19.43330 40983 ft 486 kts 152°
2026-05-06 02:33 -11.07734 19.46916 40983 ft 486 kts 152°
2026-05-06 02:33 -11.09648 19.48103 40982 ft 486 kts 152°
2026-05-06 02:34 -11.19290 19.54087 40984 ft 486 kts 152°
2026-05-06 02:34 -11.25073 19.57678 40982 ft 486 kts 152°
2026-05-06 02:35 -11.30805 19.61239 40982 ft 486 kts 152°
2026-05-06 02:35 -11.36573 19.64824 40987 ft 486 kts 152°
2026-05-06 02:36 -11.42354 19.68420 40980 ft 487 kts 152°
2026-05-06 02:36 -11.48142 19.72021 40980 ft 487 kts 152°
2026-05-06 02:37 -11.53925 19.75621 40985 ft 487 kts 152°
2026-05-06 02:37 -11.59720 19.79230 40982 ft 487 kts 152°
2026-05-06 02:38 -11.65503 19.82833 40982 ft 487 kts 152°
2026-05-06 02:38 -11.71286 19.86438 40983 ft 487 kts 152°
2026-05-06 02:39 -11.77163 19.89856 40988 ft 484 kts 161°
2026-05-06 02:39 -11.83313 19.92515 40984 ft 483 kts 162°
2026-05-06 02:40 -11.89561 19.95055 40986 ft 482 kts 162°
2026-05-06 02:40 -11.95819 19.97575 40987 ft 482 kts 162°
2026-05-06 02:41 -12.02027 20.00088 40989 ft 482 kts 162°
2026-05-06 02:41 -12.08267 20.02627 40988 ft 483 kts 162°
2026-05-06 02:42 -12.14514 20.05171 40987 ft 484 kts 162°
2026-05-06 02:42 -12.20772 20.07722 40977 ft 483 kts 162°
2026-05-06 02:43 -12.27006 20.10264 40983 ft 482 kts 162°
2026-05-06 02:43 -12.33244 20.12809 42553 ft 482 kts 162°
2026-05-06 02:43 -12.36367 20.14081 42361 ft 485 kts 160°
2026-05-06 02:44 -12.39482 20.15349 40700 ft 487 kts 161°
2026-05-06 02:44 -12.42656 20.16644 40918 ft 483 kts 161°
2026-05-06 02:44 -12.45767 20.17916 41022 ft 482 kts 161°
2026-05-06 02:45 -12.52024 20.20474 41023 ft 486 kts 161°
2026-05-06 02:45 -12.58293 20.23037 41025 ft 488 kts 161°
2026-05-06 02:46 -12.64590 20.25613 41028 ft 487 kts 161°
2026-05-06 02:46 -12.70876 20.28185 41029 ft 486 kts 161°
2026-05-06 02:47 -12.77165 20.30760 41028 ft 486 kts 161°
2026-05-06 02:47 -12.83452 20.33334 41029 ft 486 kts 161°
2026-05-06 02:48 -12.89740 20.35911 41028 ft 487 kts 161°
2026-05-06 02:48 -12.96029 20.38490 41029 ft 487 kts 161°
2026-05-06 02:49 -13.02278 20.41054 41036 ft 487 kts 161°
2026-05-06 02:49 -13.08577 20.43640 41026 ft 488 kts 160°
2026-05-06 02:50 -13.14882 20.46229 41026 ft 488 kts 160°
2026-05-06 02:50 -13.21190 20.48821 41026 ft 487 kts 160°
2026-05-06 02:51 -13.27483 20.51409 41027 ft 487 kts 160°
2026-05-06 02:51 -13.33737 20.53982 41026 ft 487 kts 160°
2026-05-06 02:52 -13.40025 20.56570 41029 ft 488 kts 160°
2026-05-06 02:52 -13.46335 20.59169 41028 ft 488 kts 160°
2026-05-06 02:53 -13.52642 20.61768 41028 ft 488 kts 160°
2026-05-06 02:53 -13.58952 20.64370 41028 ft 488 kts 160°
2026-05-06 02:54 -13.65253 20.66970 41023 ft 488 kts 160°
2026-05-06 02:54 -13.71516 20.69555 41024 ft 489 kts 161°
2026-05-06 02:55 -13.77829 20.72162 41023 ft 489 kts 161°
2026-05-06 02:55 -13.84142 20.74771 41026 ft 489 kts 160°
2026-05-06 02:56 -13.90457 20.77383 41026 ft 489 kts 160°
2026-05-06 02:56 -13.96774 20.79996 41029 ft 489 kts 160°
2026-05-06 02:57 -14.03099 20.82615 41035 ft 489 kts 161°
2026-05-06 02:57 -14.09413 20.85231 41034 ft 489 kts 161°
2026-05-06 02:58 -14.15696 20.87835 41036 ft 490 kts 161°
2026-05-06 02:58 -14.22018 20.90457 41037 ft 490 kts 161°
2026-05-06 02:59 -14.28338 20.93080 41037 ft 490 kts 161°
2026-05-06 02:59 -14.34664 20.95707 41037 ft 490 kts 161°
2026-05-06 03:00 -14.40989 20.98335 41035 ft 490 kts 161°
2026-05-06 03:00 -14.47309 21.00963 41041 ft 490 kts 161°
2026-05-06 03:01 -14.53637 21.03596 41040 ft 490 kts 161°
2026-05-06 03:01 -14.59957 21.06227 41037 ft 490 kts 161°
2026-05-06 03:02 -14.66238 21.08843 41039 ft 490 kts 161°
2026-05-06 03:02 -14.72574 21.11484 41034 ft 491 kts 161°
2026-05-06 03:03 -14.78901 21.14122 41028 ft 490 kts 161°
2026-05-06 03:03 -14.85223 21.16761 41032 ft 489 kts 161°
2026-05-06 03:04 -14.91539 21.19399 41029 ft 489 kts 161°
2026-05-06 03:04 -14.97843 21.22033 41030 ft 489 kts 161°
2026-05-06 03:05 -15.04158 21.24673 41026 ft 490 kts 161°
2026-05-06 03:05 -15.10443 21.27303 41027 ft 490 kts 161°
2026-05-06 03:06 -15.16767 21.29950 41023 ft 490 kts 161°
2026-05-06 03:06 -15.23093 21.32601 41024 ft 490 kts 161°
2026-05-06 03:07 -15.29420 21.35253 41026 ft 490 kts 161°
2026-05-06 03:07 -15.35757 21.37911 41020 ft 492 kts 161°
2026-05-06 03:08 -15.42068 21.40559 41020 ft 492 kts 161°
2026-05-06 03:08 -15.48418 21.43227 41020 ft 492 kts 161°
2026-05-06 03:09 -15.54763 21.45894 41020 ft 492 kts 161°
2026-05-06 03:09 -15.61111 21.48564 41026 ft 492 kts 161°
2026-05-06 03:10 -15.67473 21.51241 41019 ft 494 kts 161°
2026-05-06 03:10 -15.73863 21.53932 41016 ft 494 kts 161°
2026-05-06 03:11 -15.80210 21.56608 41018 ft 494 kts 161°
2026-05-06 03:11 -15.86587 21.59297 41018 ft 494 kts 161°
2026-05-06 03:12 -15.92964 21.61988 41022 ft 495 kts 161°
2026-05-06 03:12 -15.98278 21.64232 41022 ft 496 kts 161°
2026-05-06 03:13 -16.04675 21.66934 41016 ft 496 kts 161°
2026-05-06 03:13 -16.11081 21.69644 41015 ft 496 kts 161°
2026-05-06 03:14 -16.17477 21.72350 41015 ft 496 kts 161°
2026-05-06 03:14 -16.23847 21.75048 41023 ft 496 kts 161°
2026-05-06 03:15 -16.30262 21.77766 41010 ft 498 kts 161°
2026-05-06 03:15 -16.36690 21.80491 41023 ft 498 kts 161°
2026-05-06 03:16 -16.43057 21.83193 41020 ft 497 kts 161°
2026-05-06 03:16 -16.49459 21.85912 41020 ft 496 kts 161°
2026-05-06 03:17 -16.55853 21.88630 41025 ft 496 kts 161°
2026-05-06 03:17 -16.62269 21.91357 41017 ft 498 kts 161°
2026-05-06 03:18 -16.68694 21.94091 41017 ft 499 kts 161°
2026-05-06 03:18 -16.75122 21.96829 41018 ft 499 kts 161°
2026-05-06 03:19 -16.81507 21.99550 41018 ft 499 kts 161°
2026-05-06 03:19 -16.87939 22.02294 41023 ft 499 kts 161°
2026-05-06 03:20 -16.97614 22.06423 41017 ft 500 kts 161°
2026-05-06 03:20 -17.04062 22.09179 41017 ft 500 kts 161°
2026-05-06 03:21 -17.10506 22.11934 41017 ft 500 kts 161°
2026-05-06 03:21 -17.16955 22.14694 41021 ft 500 kts 161°
2026-05-06 03:22 -17.23408 22.17457 41015 ft 502 kts 161°
2026-05-06 03:22 -17.29837 22.20212 41015 ft 503 kts 161°
2026-05-06 03:23 -17.36312 22.22989 41015 ft 503 kts 161°
2026-05-06 03:23 -17.42773 22.25763 41015 ft 501 kts 161°
2026-05-06 03:24 -17.49231 22.28537 41018 ft 501 kts 161°
2026-05-06 03:24 -17.55683 22.31311 41017 ft 501 kts 161°
2026-05-06 03:25 -17.62144 22.34090 41012 ft 501 kts 161°
2026-05-06 03:25 -17.68594 22.36867 41015 ft 501 kts 161°
2026-05-06 03:26 -17.75013 22.39633 41015 ft 501 kts 161°
2026-05-06 03:26 -17.81471 22.42418 41016 ft 502 kts 161°
2026-05-06 03:27 -17.87891 22.45251 41015 ft 504 kts 160°
2026-05-06 03:27 -17.94288 22.48291 41015 ft 504 kts 159°
2026-05-06 03:28 -18.00707 22.51238 41015 ft 503 kts 160°
2026-05-06 03:28 -18.07172 22.54076 41012 ft 503 kts 161°
2026-05-06 03:29 -18.13640 22.56911 41011 ft 504 kts 161°
2026-05-06 03:29 -18.20118 22.59770 41012 ft 505 kts 161°
2026-05-06 03:30 -18.26550 22.62623 41012 ft 505 kts 161°
2026-05-06 03:30 -18.33027 22.65498 41012 ft 505 kts 161°
2026-05-06 03:31 -18.39532 22.68389 41011 ft 505 kts 161°
2026-05-06 03:31 -18.46016 22.71271 41010 ft 507 kts 161°
2026-05-06 03:32 -18.52518 22.74163 41006 ft 507 kts 161°
2026-05-06 03:32 -18.59018 22.77058 41007 ft 507 kts 161°
2026-05-06 03:33 -18.65473 22.79935 41007 ft 507 kts 161°
2026-05-06 03:33 -18.71985 22.82800 41009 ft 507 kts 161°
2026-05-06 03:34 -18.78530 22.85595 41006 ft 508 kts 162°
2026-05-06 03:34 -18.85096 22.88399 41008 ft 508 kts 161°
2026-05-06 03:35 -18.91647 22.91212 41004 ft 508 kts 161°
2026-05-06 03:35 -18.98201 22.94036 41017 ft 508 kts 161°
2026-05-06 03:36 -19.04730 22.96853 41005 ft 510 kts 161°
2026-05-06 03:36 -19.11298 22.99733 41001 ft 511 kts 161°
2026-05-06 03:37 -19.17863 23.02659 41000 ft 511 kts 161°
2026-05-06 03:37 -19.24425 23.05583 41002 ft 511 kts 161°
2026-05-06 03:38 -19.30944 23.08482 41011 ft 512 kts 161°
2026-05-06 03:38 -19.37536 23.11411 41005 ft 514 kts 161°
2026-05-06 03:39 -19.44112 23.14337 41005 ft 512 kts 161°
2026-05-06 03:39 -19.50689 23.17266 41004 ft 512 kts 161°
2026-05-06 03:40 -19.57269 23.20198 41024 ft 512 kts 161°
2026-05-06 03:40 -19.63860 23.23138 41002 ft 515 kts 161°
2026-05-06 03:41 -19.70470 23.26088 41014 ft 516 kts 161°
2026-05-06 03:41 -19.77088 23.29046 41019 ft 516 kts 161°
2026-05-06 03:42 -19.83700 23.32004 41031 ft 516 kts 161°
2026-05-06 03:42 -19.90318 23.34966 41052 ft 517 kts 161°
2026-05-06 03:43 -19.96913 23.37921 41048 ft 518 kts 161°
2026-05-06 03:43 -20.03528 23.41006 41048 ft 520 kts 158°
2026-05-06 03:44 -20.10031 23.44401 41003 ft 520 kts 157°
2026-05-06 03:44 -20.16500 23.47818 41016 ft 518 kts 157°
2026-05-06 03:45 -20.22983 23.51189 41005 ft 519 kts 158°
2026-05-06 03:45 -20.29492 23.54545 41004 ft 520 kts 158°
2026-05-06 03:46 -20.36007 23.57901 41003 ft 520 kts 158°
2026-05-06 03:46 -20.42517 23.61260 41001 ft 520 kts 158°
2026-05-06 03:47 -20.49027 23.64624 41001 ft 520 kts 158°
2026-05-06 03:47 -20.55539 23.67992 41001 ft 520 kts 158°
2026-05-06 03:48 -20.62047 23.71354 41001 ft 520 kts 158°
2026-05-06 03:48 -20.68522 23.74691 41001 ft 520 kts 158°
2026-05-06 03:49 -20.75037 23.78053 41008 ft 520 kts 158°
2026-05-06 03:49 -20.81561 23.81423 40999 ft 521 kts 158°
2026-05-06 03:50 -20.88096 23.84804 40998 ft 521 kts 158°
2026-05-06 03:50 -20.94625 23.88185 40997 ft 521 kts 158°
2026-05-06 03:51 -21.01109 23.91547 41023 ft 521 kts 158°
2026-05-06 03:51 -21.07648 23.94939 40994 ft 524 kts 158°
2026-05-06 03:52 -21.14222 23.98353 40996 ft 524 kts 158°
2026-05-06 03:52 -21.20793 24.01769 40996 ft 524 kts 158°
2026-05-06 03:53 -21.24073 24.03476 40862 ft 524 kts 158°
2026-05-06 03:53 -21.27358 24.05186 40686 ft 525 kts 158°
2026-05-06 03:53 -21.30651 24.06901 40518 ft 527 kts 158°
2026-05-06 03:53 -21.33921 24.08604 40348 ft 528 kts 158°
2026-05-06 03:54 -21.37229 24.10328 40179 ft 529 kts 158°
2026-05-06 03:54 -21.40541 24.12056 40006 ft 530 kts 158°
2026-05-06 03:54 -21.43862 24.13789 39842 ft 530 kts 158°
2026-05-06 03:54 -21.47180 24.15521 39671 ft 531 kts 158°
2026-05-06 03:55 -21.50515 24.17264 39482 ft 532 kts 158°
2026-05-06 03:55 -21.53845 24.19004 39288 ft 532 kts 158°
2026-05-06 03:55 -21.57145 24.20730 39129 ft 533 kts 158°
2026-05-06 03:55 -21.60487 24.22478 38958 ft 535 kts 158°
2026-05-06 03:56 -21.63842 24.24233 38771 ft 537 kts 158°
2026-05-06 03:56 -21.67213 24.25998 38573 ft 538 kts 158°
2026-05-06 03:56 -21.70577 24.27761 38358 ft 539 kts 158°
2026-05-06 03:56 -21.73949 24.29529 38138 ft 539 kts 158°
2026-05-06 03:57 -21.77324 24.31301 37924 ft 539 kts 158°
2026-05-06 03:57 -21.80694 24.33070 37714 ft 539 kts 158°
2026-05-06 03:57 -21.84070 24.34843 37518 ft 539 kts 158°
2026-05-06 03:57 -21.87444 24.36616 37330 ft 540 kts 158°
2026-05-06 03:58 -21.90833 24.38397 37124 ft 541 kts 158°
2026-05-06 03:58 -21.94222 24.40179 36907 ft 541 kts 158°
2026-05-06 03:58 -21.97603 24.41958 36701 ft 541 kts 158°
2026-05-06 03:58 -22.00994 24.43744 36502 ft 541 kts 158°
2026-05-06 03:59 -22.04373 24.45524 36306 ft 541 kts 158°
2026-05-06 03:59 -22.07753 24.47306 36118 ft 541 kts 158°
2026-05-06 03:59 -22.11130 24.49087 35903 ft 541 kts 158°
2026-05-06 03:59 -22.14474 24.50851 35747 ft 541 kts 158°
2026-05-06 04:00 -22.17856 24.52636 35557 ft 542 kts 158°
2026-05-06 04:00 -22.21246 24.54426 35366 ft 542 kts 158°
2026-05-06 04:00 -22.24638 24.56219 35174 ft 542 kts 159°
2026-05-06 04:00 -22.28023 24.58009 34986 ft 542 kts 159°
2026-05-06 04:01 -22.31408 24.59800 34798 ft 542 kts 159°
2026-05-06 04:01 -22.33651 24.60987 34674 ft 542 kts 159°
2026-05-06 04:01 -22.38176 24.63384 34432 ft 541 kts 159°
2026-05-06 04:01 -22.40411 24.64568 34336 ft 541 kts 159°
2026-05-06 04:02 -22.43799 24.66365 34155 ft 542 kts 159°
2026-05-06 04:02 -22.47186 24.68170 33972 ft 542 kts 159°
2026-05-06 04:02 -22.50572 24.69978 33758 ft 543 kts 159°
2026-05-06 04:02 -22.55052 24.72374 33500 ft 543 kts 159°
2026-05-06 04:03 -22.57353 24.73605 33343 ft 544 kts 159°
2026-05-06 04:03 -22.60745 24.75419 33150 ft 544 kts 159°
2026-05-06 04:03 -22.64148 24.77240 32934 ft 545 kts 158°
2026-05-06 04:03 -22.67550 24.79060 32766 ft 546 kts 159°
2026-05-06 04:04 -22.70919 24.80864 32571 ft 547 kts 159°
2026-05-06 04:04 -22.74336 24.82693 32372 ft 549 kts 158°
2026-05-06 04:04 -22.77764 24.84530 32172 ft 550 kts 158°
2026-05-06 04:04 -22.81196 24.86371 31973 ft 551 kts 158°
2026-05-06 04:05 -22.84636 24.88217 31781 ft 552 kts 158°
2026-05-06 04:05 -22.88083 24.90068 31583 ft 552 kts 158°
2026-05-06 04:05 -22.91537 24.91923 31392 ft 553 kts 158°
2026-05-06 04:05 -22.94991 24.93780 31229 ft 554 kts 158°
2026-05-06 04:06 -22.98448 24.95640 31037 ft 556 kts 158°
2026-05-06 04:06 -23.01921 24.97508 30849 ft 557 kts 158°
2026-05-06 04:06 -23.05396 24.99379 30666 ft 558 kts 158°
2026-05-06 04:06 -23.08831 25.01230 30470 ft 559 kts 157°
2026-05-06 04:07 -23.12315 25.03108 30271 ft 558 kts 157°
2026-05-06 04:07 -23.15788 25.04982 30090 ft 557 kts 157°
2026-05-06 04:07 -23.19252 25.06853 29896 ft 555 kts 157°
2026-05-06 04:07 -23.22710 25.08722 29663 ft 554 kts 157°
2026-05-06 04:08 -23.26162 25.10588 29460 ft 552 kts 157°
2026-05-06 04:08 -23.29598 25.12447 29250 ft 550 kts 157°
2026-05-06 04:08 -23.33018 25.14297 29059 ft 548 kts 157°
2026-05-06 04:08 -23.36425 25.16141 28835 ft 545 kts 157°
2026-05-06 04:09 -23.39814 25.17977 28631 ft 543 kts 157°
2026-05-06 04:09 -23.43197 25.19811 28426 ft 541 kts 157°
2026-05-06 04:09 -23.46566 25.21638 28210 ft 539 kts 157°
2026-05-06 04:09 -23.49877 25.23434 28058 ft 538 kts 157°
2026-05-06 04:10 -23.53222 25.25250 27857 ft 537 kts 157°
2026-05-06 04:10 -23.56564 25.27064 27656 ft 535 kts 157°
2026-05-06 04:10 -23.59886 25.28870 27453 ft 533 kts 157°
2026-05-06 04:10 -23.63204 25.30675 27261 ft 531 kts 157°
2026-05-06 04:11 -23.66517 25.32473 27072 ft 528 kts 157°
2026-05-06 04:11 -23.69805 25.34249 26869 ft 526 kts 157°
2026-05-06 04:11 -23.73080 25.36016 26680 ft 524 kts 157°
2026-05-06 04:11 -23.76337 25.37774 26504 ft 522 kts 157°
2026-05-06 04:12 -23.79592 25.39531 26313 ft 520 kts 157°
2026-05-06 04:12 -23.82829 25.41282 26123 ft 519 kts 157°
2026-05-06 04:12 -23.86060 25.43031 25939 ft 517 kts 157°
2026-05-06 04:12 -23.89231 25.44749 25759 ft 515 kts 157°
2026-05-06 04:13 -23.92438 25.46489 25556 ft 513 kts 157°
2026-05-06 04:13 -23.95628 25.48220 25388 ft 511 kts 157°
2026-05-06 04:13 -23.98810 25.49948 25206 ft 509 kts 157°
2026-05-06 04:13 -24.01979 25.51670 25052 ft 507 kts 157°
2026-05-06 04:14 -24.05139 25.53388 24855 ft 505 kts 157°
2026-05-06 04:14 -24.08285 25.55099 24682 ft 503 kts 157°
2026-05-06 04:14 -24.11415 25.56803 24504 ft 501 kts 157°
2026-05-06 04:14 -24.14530 25.58499 24329 ft 500 kts 157°
2026-05-06 04:15 -24.17640 25.60193 24152 ft 498 kts 157°
2026-05-06 04:15 -24.20733 25.61879 23977 ft 496 kts 157°
2026-05-06 04:15 -24.23815 25.63560 23803 ft 494 kts 157°
2026-05-06 04:15 -24.26888 25.65237 23627 ft 492 kts 157°
2026-05-06 04:16 -24.29955 25.66912 23434 ft 490 kts 157°
2026-05-06 04:16 -24.32961 25.68553 23233 ft 489 kts 157°
2026-05-06 04:16 -24.36002 25.70215 23025 ft 487 kts 157°
2026-05-06 04:16 -24.39025 25.71869 22818 ft 485 kts 156°
2026-05-06 04:17 -24.42039 25.73518 22611 ft 483 kts 156°
2026-05-06 04:17 -24.45048 25.75165 22406 ft 481 kts 156°
2026-05-06 04:17 -24.48041 25.76804 22205 ft 479 kts 156°
2026-05-06 04:17 -24.51027 25.78441 22003 ft 478 kts 156°
2026-05-06 04:18 -24.53964 25.80054 21827 ft 477 kts 156°
2026-05-06 04:18 -24.56818 25.81908 21610 ft 478 kts 147°
2026-05-06 04:18 -24.59398 25.84213 21426 ft 478 kts 136°
2026-05-06 04:18 -24.61578 25.86969 21221 ft 477 kts 125°
2026-05-06 04:19 -24.63425 25.89992 21048 ft 475 kts 121°
2026-05-06 04:19 -24.65132 25.93095 20832 ft 473 kts 119°
2026-05-06 04:19 -24.66763 25.96226 20637 ft 471 kts 118°
2026-05-06 04:19 -24.68365 25.99362 20451 ft 469 kts 117°
2026-05-06 04:20 -24.70002 26.02456 20257 ft 468 kts 122°
2026-05-06 04:20 -24.71949 26.05259 20071 ft 466 kts 132°
2026-05-06 04:20 -24.74281 26.07722 19882 ft 464 kts 139°
2026-05-06 04:20 -24.76751 26.10002 19710 ft 463 kts 142°
2026-05-06 04:21 -24.79290 26.12187 19531 ft 462 kts 143°
2026-05-06 04:21 -24.81844 26.14316 19345 ft 460 kts 144°
2026-05-06 04:21 -24.84400 26.16428 19202 ft 458 kts 144°
2026-05-06 04:21 -24.86943 26.18536 19078 ft 457 kts 144°
2026-05-06 04:22 -24.89476 26.20654 18924 ft 457 kts 143°
2026-05-06 04:22 -24.91998 26.22776 18793 ft 456 kts 143°
2026-05-06 04:22 -24.94509 26.24898 18646 ft 454 kts 143°
2026-05-06 04:23 -24.99508 26.29139 18385 ft 451 kts 143°
2026-05-06 04:23 -25.01994 26.31253 18254 ft 451 kts 143°
2026-05-06 04:23 -25.04481 26.33368 18111 ft 451 kts 143°
2026-05-06 04:23 -25.06965 26.35481 17936 ft 451 kts 143°
2026-05-06 04:24 -25.09443 26.37589 17785 ft 449 kts 143°
2026-05-06 04:24 -25.11919 26.39697 17618 ft 448 kts 143°
2026-05-06 04:24 -25.14354 26.41771 17491 ft 446 kts 143°
2026-05-06 04:24 -25.16809 26.43861 17339 ft 445 kts 143°
2026-05-06 04:25 -25.19256 26.45947 17185 ft 444 kts 143°
2026-05-06 04:25 -25.21694 26.48028 17048 ft 442 kts 143°
2026-05-06 04:25 -25.24127 26.50107 16893 ft 441 kts 143°
2026-05-06 04:25 -25.26557 26.52180 16755 ft 441 kts 143°
2026-05-06 04:26 -25.28982 26.54248 16591 ft 440 kts 143°
2026-05-06 04:26 -25.31370 26.56288 16464 ft 439 kts 143°
2026-05-06 04:26 -25.33791 26.58357 16309 ft 437 kts 143°
2026-05-06 04:26 -25.36188 26.60406 16158 ft 436 kts 143°
2026-05-06 04:27 -25.38589 26.62460 16025 ft 434 kts 143°
2026-05-06 04:27 -25.40974 26.64502 15867 ft 433 kts 143°
2026-05-06 04:27 -25.43361 26.66546 15723 ft 432 kts 143°
2026-05-06 04:27 -25.45740 26.68585 15563 ft 431 kts 143°
2026-05-06 04:28 -25.48079 26.70590 15477 ft 430 kts 143°
2026-05-06 04:28 -25.50446 26.72621 15341 ft 430 kts 143°
2026-05-06 04:28 -25.52802 26.74643 15196 ft 429 kts 143°
2026-05-06 04:28 -25.55155 26.76664 15062 ft 427 kts 143°
2026-05-06 04:29 -25.57507 26.78685 14908 ft 426 kts 143°
2026-05-06 04:29 -25.59851 26.80700 14771 ft 425 kts 143°
2026-05-06 04:29 -25.62166 26.82734 14615 ft 424 kts 139°
2026-05-06 04:29 -25.64179 26.85112 14494 ft 423 kts 126°
2026-05-06 04:30 -25.65646 26.87920 14349 ft 419 kts 110°
2026-05-06 04:30 -25.66469 26.90998 14215 ft 415 kts 99°
2026-05-06 04:30 -25.66964 26.94105 14093 ft 414 kts 95°
2026-05-06 04:30 -25.67315 26.97267 13947 ft 413 kts 92°
2026-05-06 04:31 -25.67600 27.00429 13803 ft 411 kts 92°
2026-05-06 04:31 -25.67869 27.03588 13632 ft 410 kts 92°
2026-05-06 04:31 -25.68146 27.06733 13498 ft 409 kts 92°
2026-05-06 04:31 -25.68439 27.09869 13343 ft 408 kts 92°
2026-05-06 04:32 -25.68745 27.13000 13190 ft 408 kts 93°
2026-05-06 04:32 -25.69061 27.16127 13043 ft 406 kts 93°
2026-05-06 04:32 -25.69379 27.19235 12880 ft 405 kts 94°
2026-05-06 04:32 -25.69699 27.22336 12726 ft 404 kts 94°
2026-05-06 04:33 -25.70017 27.25431 12566 ft 403 kts 94°
2026-05-06 04:33 -25.70330 27.28482 12444 ft 403 kts 93°
2026-05-06 04:33 -25.70645 27.31571 12321 ft 402 kts 93°
2026-05-06 04:33 -25.70958 27.34646 12198 ft 401 kts 93°
2026-05-06 04:34 -25.71269 27.37718 12083 ft 400 kts 93°
2026-05-06 04:34 -25.71577 27.40777 11955 ft 400 kts 93°
2026-05-06 04:34 -25.71948 27.43836 11832 ft 400 kts 98°
2026-05-06 04:34 -25.72543 27.46852 11710 ft 400 kts 101°
2026-05-06 04:35 -25.73187 27.49849 11584 ft 399 kts 101°
2026-05-06 04:35 -25.73842 27.52836 11467 ft 398 kts 101°
2026-05-06 04:35 -25.74504 27.55824 11350 ft 398 kts 101°
2026-05-06 04:35 -25.75156 27.58762 11235 ft 397 kts 101°
2026-05-06 04:36 -25.75816 27.61729 11121 ft 396 kts 101°
2026-05-06 04:36 -25.76482 27.64722 11009 ft 394 kts 101°
2026-05-06 04:36 -25.77121 27.67594 10897 ft 382 kts 101°
2026-05-06 04:36 -25.77748 27.70416 10798 ft 371 kts 102°
2026-05-06 04:37 -25.78358 27.73156 10689 ft 359 kts 101°
2026-05-06 04:37 -25.78949 27.75810 10582 ft 348 kts 101°
2026-05-06 04:37 -25.79520 27.78383 10470 ft 338 kts 101°
2026-05-06 04:37 -25.80073 27.80882 10372 ft 329 kts 101°
2026-05-06 04:38 -25.80615 27.83335 10269 ft 324 kts 101°
2026-05-06 04:38 -25.81150 27.85762 10163 ft 324 kts 101°
2026-05-06 04:38 -25.81678 27.88156 10039 ft 323 kts 101°
2026-05-06 04:38 -25.82211 27.90575 9911 ft 322 kts 101°
2026-05-06 04:39 -25.82743 27.92989 9779 ft 321 kts 101°
2026-05-06 04:39 -25.83273 27.95393 9654 ft 320 kts 101°
2026-05-06 04:39 -25.83801 27.97791 9521 ft 319 kts 100°
2026-05-06 04:39 -25.84327 28.00184 9357 ft 318 kts 100°
2026-05-06 04:40 -25.84851 28.02565 9177 ft 316 kts 100°
2026-05-06 04:40 -25.85370 28.04933 9010 ft 315 kts 100°
2026-05-06 04:40 -25.85889 28.07292 8828 ft 314 kts 100°
2026-05-06 04:40 -25.86405 28.09649 8651 ft 313 kts 100°
2026-05-06 04:41 -25.86918 28.11989 8456 ft 310 kts 100°
2026-05-06 04:41 -25.87416 28.14262 8320 ft 303 kts 100°
2026-05-06 04:41 -25.87904 28.16473 8163 ft 284 kts 100°
2026-05-06 04:41 -25.88352 28.18502 8142 ft 258 kts 100°
2026-05-06 04:42 -25.88757 28.20333 8172 ft 231 kts 99°
2026-05-06 04:42 -25.89120 28.21986 8149 ft 210 kts 98°
2026-05-06 04:42 -25.89451 28.23504 8140 ft 197 kts 98°
2026-05-06 04:42 -25.89766 28.24962 8136 ft 193 kts 98°
2026-05-06 04:43 -25.90083 28.26414 8135 ft 194 kts 99°
2026-05-06 04:43 -25.90603 28.27815 8128 ft 199 kts 119°
2026-05-06 04:43 -25.91525 28.28952 8123 ft 199 kts 144°
2026-05-06 04:43 -25.92756 28.29618 8125 ft 196 kts 171°
2026-05-06 04:44 -25.94090 28.29780 8124 ft 191 kts 191°
2026-05-06 04:44 -25.95363 28.29471 8132 ft 185 kts 205°
2026-05-06 04:44 -25.96596 28.29049 8123 ft 186 kts 203°
2026-05-06 04:44 -25.97845 28.28655 8129 ft 187 kts 203°
2026-05-06 04:45 -25.99107 28.28259 8086 ft 189 kts 203°
2026-05-06 04:45 -26.00384 28.27855 7804 ft 192 kts 203°
2026-05-06 04:45 -26.01659 28.27460 7496 ft 192 kts 202°
2026-05-06 04:45 -26.02927 28.27070 7258 ft 185 kts 202°
2026-05-06 04:46 -26.04129 28.26698 7041 ft 175 kts 202°
2026-05-06 04:46 -26.05287 28.26337 6822 ft 172 kts 202°
2026-05-06 04:46 -26.06444 28.25978 6610 ft 173 kts 202°
2026-05-06 04:46 -26.07605 28.25618 6379 ft 173 kts 201°
2026-05-06 04:47 -26.08747 28.25264 6112 ft 168 kts 198°
2026-05-06 04:47 -26.09858 28.24920 5888 ft 164 kts 199°
2026-05-06 04:47 -26.10951 28.24579 5630 ft 165 kts 197°
2026-05-06 04:47 -26.11958 28.24260 5533 ft 137 kts 196°
2026-05-06 04:48 -26.12609 28.24038 5548 ft 41 kts 220°
2026-05-06 04:48 -26.12623 28.23918 5551 ft 14 kts 280°
2026-05-06 04:48 -26.12675 28.23753 5552 ft 24 kts 202°
2026-05-06 04:48 -26.12807 28.23680 5552 ft 18 kts 239°
2026-05-06 04:49 -26.12820 28.23572 5554 ft 12 kts 264°
2026-05-06 04:49 -26.12857 28.23524 5555 ft 6 kts 204°
2026-05-06 04:49 -26.12882 28.23518 5552 ft 0 kts 187°